Location: Northcutt
(34.7304°N, 84.4305°W)
Time: 04:16:41
(UTC+00:00)

Vanguard 2 - Pass Details

Date: 03 October 2022
Orbit: 553 x 2933 km, 32.9° (Epoch: 05 December)

Event Time Altitude Azimuth Distance (km) Brightness Sun altitude
Rises 01:08:31 0° 284° (WNW) 6,601 13.8 -23.0°
Reaches altitude 10° 01:13:14 10° 277° (W) 5,707 13.0 -23.9°
Maximum altitude 01:28:37 38° 218° (SW) 3,785 11.1 -27.0°
Enters shadow 01:40:34 14° 161° (SSE) 4,687 11.2 -29.4°
Drops below altitude 10° 01:41:56 10° 157° (SSE) 4,916 - -29.6°
Sets 01:45:41 0° 149° (SSE) 5,628 - -30.4°
